Forest City, IA

9:50 PM CDT on June 23, 2017 (GMT -0500)
Forest City Municipal

Weather History for KFXY - March, 2014

Change the Weather History Date:

Wednesday, March 12, 2014

  Actual Average Record
Temperature  
Mean Temperature 28 °F -  
Max Temperature 32 °F 39 °F 64 °F (2015)
Min Temperature 23 °F 22 °F 10 °F (2017)
Degree Days  
Heating Degree Days 38    
Moisture  
Dew Point 18 °F    
Average Humidity 66    
Maximum Humidity 80    
Minimum Humidity 59    
Precipitation  
Precipitation 0.00 in - - ()
Sea Level Pressure  
Sea Level Pressure 30.06 in    
Wind  
Wind Speed 15 mph (NNW)    
Max Wind Speed 24 mph    
Max Gust Speed 30 mph    
Visibility 10 miles    
Events      
Averages and records for this station are not official NWS values.
T = Trace of Precipitation, MM = Missing Value Source: NWS Daily Summary

Daily Weather History Graph

Daily Weather History Graph

Search for Another Location

Airport or City:

Trip Planner

Search our weather history database for the weather conditions in past years. The results will help you decide how hot, cold, wet, or windy it might be!

Date:

Astronomy

Mar. 12, 2014 Rise Set
Actual Time 7:31 AM CDT 7:17 PM CDT
Civil Twilight 7:03 AM CDT 7:45 PM CDT
Nautical Twilight 6:30 AM CDT 8:18 PM CDT
Astronomical Twilight 5:57 AM CDT 8:52 PM CDT
Moon 3:43 PM CDT (3/12) 5:08 AM CDT (3/12)
Length of Visible Light 12h 42m
Length of Day
11h 45m
Waxing Gibbous, 85% of the Moon is Illuminated
Mar 12
Waxing Gibbous
Mar 16
Full
Mar 23
Last Quarter
Mar 30
New
Apr 7
First Quarter

Hourly Weather History & Observations

Time (CDT) Temp. Windchill Dew Point Humidity Pressure Visibility Wind Dir Wind Speed Gust Speed Precip Events Conditions
12:15 AM 32.0 °F 20.1 °F 23.0 °F 69% 29.98 in 10.0 mi NNW 19.6 mph 26.5 mph N/A   Clear
12:35 AM 32.0 °F 21.2 °F 23.0 °F 69% 29.98 in 10.0 mi NNW 16.1 mph 27.6 mph N/A   Clear
12:55 AM 32.0 °F 20.5 °F 23.0 °F 69% 29.99 in 10.0 mi NNW 18.4 mph 21.9 mph N/A   Clear
1:15 AM 30.2 °F 17.1 °F 23.0 °F 75% 29.99 in 10.0 mi NNW 21.9 mph 29.9 mph N/A   Clear
1:35 AM 30.2 °F 19.3 °F 23.0 °F 75% 29.99 in 10.0 mi NNW 15.0 mph 23.0 mph N/A   Clear
1:55 AM 30.2 °F 19.3 °F 23.0 °F 75% 29.99 in 10.0 mi NNW 15.0 mph 20.7 mph N/A   Clear
2:15 AM 30.2 °F 18.5 °F 23.0 °F 75% 29.99 in 10.0 mi NNW 17.3 mph 24.2 mph N/A   Clear
2:35 AM 28.4 °F 15.4 °F 21.2 °F 74% 29.99 in 10.0 mi NNW 19.6 mph 25.3 mph N/A   Clear
2:55 AM 28.4 °F 14.7 °F 21.2 °F 74% 29.99 in 10.0 mi NNW 21.9 mph 27.6 mph N/A   Clear
3:15 AM 28.4 °F 14.1 °F 21.2 °F 74% 29.99 in 10.0 mi NNW 24.2 mph 27.6 mph N/A   Clear
3:35 AM 28.4 °F 16.2 °F 21.2 °F 74% 29.99 in 10.0 mi NNW 17.3 mph 25.3 mph N/A   Clear
3:55 AM 28.4 °F 15.1 °F 21.2 °F 74% 30.00 in 10.0 mi NNW 20.7 mph 25.3 mph N/A   Clear
4:15 AM 26.6 °F 13.4 °F 19.4 °F 74% 30.00 in 10.0 mi NNW 18.4 mph 27.6 mph N/A   Clear
4:35 AM 26.6 °F 13.8 °F 19.4 °F 74% 30.01 in 10.0 mi NNW 17.3 mph 21.9 mph N/A   Clear
4:55 AM 26.6 °F 13.8 °F 19.4 °F 74% 30.02 in 10.0 mi NNW 17.3 mph 27.6 mph N/A   Clear
5:15 AM 26.6 °F 13.1 °F 17.6 °F 69% 30.03 in 10.0 mi NNW 19.6 mph 25.3 mph N/A   Clear
5:35 AM 26.6 °F 15.7 °F 17.6 °F 69% 30.03 in 10.0 mi NNW 12.7 mph 24.2 mph N/A   Clear
5:55 AM 24.8 °F 10.7 °F 17.6 °F 74% 30.04 in 10.0 mi NNW 19.6 mph 24.2 mph N/A   Clear
6:15 AM 24.8 °F 12.4 °F 15.8 °F 69% 30.04 in 10.0 mi NW 15.0 mph 23.0 mph N/A   Clear
6:35 AM 24.8 °F 11.5 °F 15.8 °F 69% 30.04 in 10.0 mi NNW 17.3 mph 23.0 mph N/A   Clear
6:55 AM 23.0 °F 9.6 °F 15.8 °F 74% 30.05 in 10.0 mi NNW 16.1 mph 20.7 mph N/A   Clear
7:15 AM 23.0 °F 8.3 °F 14.0 °F 68% 30.05 in 10.0 mi NNW 19.6 mph 24.2 mph N/A   Clear
7:35 AM 23.0 °F 8.7 °F 12.2 °F 63% 30.05 in 10.0 mi NNW 18.4 mph 23.0 mph N/A   Scattered Clouds
7:55 AM 23.0 °F 10.1 °F 12.2 °F 63% 30.05 in 10.0 mi NNW 15.0 mph 24.2 mph N/A   Scattered Clouds
8:15 AM 23.0 °F 10.1 °F 12.2 °F 63% 30.06 in 10.0 mi NNW 15.0 mph 19.6 mph N/A   Clear
8:35 AM 23.0 °F 10.6 °F 12.2 °F 63% 30.06 in 10.0 mi NNW 13.8 mph 21.9 mph N/A   Clear
8:55 AM 24.8 °F 12.9 °F 14.0 °F 64% 30.07 in 10.0 mi NW 13.8 mph - N/A   Clear
9:15 AM 24.8 °F 11.9 °F 12.2 °F 59% 30.07 in 10.0 mi NNW 16.1 mph 24.2 mph N/A   Clear
9:35 AM 24.8 °F 11.9 °F 12.2 °F 59% 30.08 in 10.0 mi NNW 16.1 mph 25.3 mph N/A   Clear
9:55 AM 24.8 °F 11.1 °F 12.2 °F 59% 30.09 in 10.0 mi NNW 18.4 mph 23.0 mph N/A   Clear
10:15 AM 24.8 °F 11.9 °F 14.0 °F 64% 30.09 in 10.0 mi North 16.1 mph - N/A   Clear
10:35 AM 26.6 °F 14.3 °F 14.0 °F 59% 30.09 in 10.0 mi NNW 16.1 mph 20.7 mph N/A   Clear
10:55 AM 26.6 °F 14.3 °F 14.0 °F 59% 30.09 in 10.0 mi NNW 16.1 mph - N/A   Clear
11:15 AM 26.6 °F 15.2 °F 14.0 °F 59% 30.09 in 10.0 mi NNW 13.8 mph 19.6 mph N/A   Clear
11:35 AM 26.6 °F 13.8 °F 14.0 °F 59% 30.10 in 10.0 mi North 17.3 mph - N/A   Clear
11:55 AM 26.6 °F 15.7 °F 14.0 °F 59% 30.10 in 10.0 mi NNW 12.7 mph - N/A   Clear
12:15 PM 26.6 °F 16.8 °F 14.0 °F 59% 30.10 in 10.0 mi North 10.4 mph - N/A   Clear
12:35 PM 26.6 °F 15.7 °F 14.0 °F 59% 30.09 in 10.0 mi North 12.7 mph 18.4 mph N/A   Clear
12:55 PM 26.6 °F 16.8 °F 15.8 °F 64% 30.10 in 10.0 mi NW 10.4 mph 16.1 mph N/A   Clear
1:15 PM 26.6 °F 17.5 °F 14.0 °F 59% 30.10 in 10.0 mi NW 9.2 mph 16.1 mph N/A   Clear
1:35 PM 28.4 °F 19.7 °F 15.8 °F 59% 30.10 in 10.0 mi NW 9.2 mph - N/A   Clear
1:55 PM 28.4 °F 18.5 °F 17.6 °F 64% 30.10 in 10.0 mi NNW 11.5 mph - N/A   Clear
2:15 PM 28.4 °F 18.5 °F 15.8 °F 59% 30.09 in 10.0 mi NW 11.5 mph 18.4 mph N/A   Clear
2:35 PM 28.4 °F 19.1 °F 15.8 °F 59% 30.09 in 10.0 mi NW 10.4 mph 16.1 mph N/A   Clear
2:55 PM 28.4 °F 17.5 °F 17.6 °F 64% 30.09 in 10.0 mi NW 13.8 mph 17.3 mph N/A   Mostly Cloudy
3:15 PM 30.2 °F 21.3 °F 17.6 °F 60% 30.09 in 10.0 mi NW 10.4 mph 18.4 mph N/A   Overcast
3:35 PM 28.4 °F 18.0 °F 17.6 °F 64% 30.09 in 10.0 mi NW 12.7 mph 16.1 mph N/A   Overcast
3:55 PM 28.4 °F 18.5 °F 15.8 °F 59% 30.09 in 10.0 mi NNW 11.5 mph - N/A   Overcast
4:15 PM 28.4 °F 18.0 °F 17.6 °F 64% 30.09 in 10.0 mi WNW 12.7 mph - N/A   Overcast
4:35 PM 30.2 °F 21.3 °F 17.6 °F 60% 30.09 in 10.0 mi NW 10.4 mph - N/A   Overcast
4:55 PM 30.2 °F 21.3 °F 17.6 °F 60% 30.08 in 10.0 mi WNW 10.4 mph - N/A   Overcast
5:15 PM 30.2 °F 21.3 °F 17.6 °F 60% 30.08 in 10.0 mi NW 10.4 mph - N/A   Scattered Clouds
5:35 PM 30.2 °F 22.6 °F 17.6 °F 60% 30.07 in 10.0 mi NW 8.1 mph - N/A   Mostly Cloudy
5:55 PM 30.2 °F 21.9 °F 17.6 °F 60% 30.07 in 10.0 mi NW 9.2 mph - N/A   Overcast
6:15 PM 30.2 °F 23.4 °F 19.4 °F 64% 30.07 in 10.0 mi WNW 6.9 mph - N/A   Overcast
6:35 PM 30.2 °F 23.4 °F 19.4 °F 64% 30.08 in 10.0 mi WNW 6.9 mph - N/A   Overcast
6:55 PM 30.2 °F 23.4 °F 19.4 °F 64% 30.08 in 10.0 mi WNW 6.9 mph - N/A   Overcast
7:15 PM 30.2 °F 24.3 °F 19.4 °F 64% 30.08 in 10.0 mi NW 5.8 mph - N/A   Overcast
7:35 PM 30.2 °F - 21.2 °F 69% 30.08 in 10.0 mi Calm Calm - N/A   Overcast
7:55 PM 30.2 °F 24.3 °F 19.4 °F 64% 30.09 in 10.0 mi NW 5.8 mph - N/A   Overcast
8:15 PM 30.2 °F 26.7 °F 21.2 °F 69% 30.08 in 10.0 mi NW 3.5 mph - N/A   Overcast
8:35 PM 30.2 °F - 21.2 °F 69% 30.09 in 10.0 mi Calm Calm - N/A   Overcast
8:55 PM 30.2 °F - 21.2 °F 69% 30.08 in 10.0 mi Calm Calm - N/A   Overcast
9:15 PM 30.2 °F - 19.4 °F 64% 30.08 in 10.0 mi Calm Calm - N/A   Overcast
9:35 PM 30.2 °F - 21.2 °F 69% 30.07 in 10.0 mi Calm Calm - N/A   Overcast
9:55 PM 30.2 °F - 21.2 °F 69% 30.06 in 10.0 mi Calm Calm - N/A   Overcast
10:15 PM 30.2 °F - 21.2 °F 69% 30.06 in 10.0 mi Calm Calm - N/A   Overcast
10:35 PM 28.4 °F 24.6 °F 21.2 °F 74% 30.05 in 10.0 mi ESE 3.5 mph - N/A   Overcast
10:55 PM 28.4 °F 24.6 °F 21.2 °F 74% 30.06 in 10.0 mi ESE 3.5 mph - N/A   Overcast
11:15 PM 28.4 °F 23.3 °F 21.2 °F 74% 30.05 in 10.0 mi ESE 4.6 mph - N/A   Overcast
11:35 PM 28.4 °F 24.6 °F 21.2 °F 74% 30.05 in 10.0 mi ESE 3.5 mph - N/A   Overcast
11:55 PM 28.4 °F 22.2 °F 23.0 °F 80% 30.04 in 10.0 mi SSE 5.8 mph - N/A   Overcast